Salina, KS

11:51 AM CST on February 22, 2017 (GMT -0600)
Salina Municipal

Weather History for KSLN - June, 2013

Change the Weather History Date:

Sunday, June 16, 2013

  Actual Average Record
Temperature  
Mean Temperature 79 °F 76 °F  
Max Temperature 90 °F 88 °F 104 °F (1946)
Min Temperature 67 °F 64 °F 50 °F (1976)
Degree Days  
Heating Degree Days 0 0  
Month to date heating degree days 7 5  
Since 1 June heating degree days 7 5  
Since 1 July heating degree days 4924 4869  
Cooling Degree Days 14 11  
Month to date cooling degree days 140 141  
Year to date cooling degree days 281 269  
Since 1 June cooling degree days 140 141  
Growing Degree Days 29 (Base 50)    
Moisture  
Dew Point 65 °F    
Average Humidity 60    
Maximum Humidity 79    
Minimum Humidity 41    
Precipitation  
Precipitation 0.02 in 0.13 in 0.71 in (2006)
Month to date precipitation 1.93 2.26  
Year to date precipitation 15.17 14.25  
Sea Level Pressure  
Sea Level Pressure 29.92 in    
Wind  
Wind Speed 8 mph (NE)    
Max Wind Speed 24 mph    
Max Gust Speed 29 mph    
Visibility 10 miles    
Events Thunderstorm    
T = Trace of Precipitation, MM = Missing Value Source: NWS Daily Summary

Daily Weather History Graph

Daily Weather History Graph

Search for Another Location

Airport or City:

Trip Planner

Search our weather history database for the weather conditions in past years. The results will help you decide how hot, cold, wet, or windy it might be!

Date:

Astronomy

Jun. 16, 2013 Rise Set
Actual Time 6:05 AM CDT 8:57 PM CDT
Civil Twilight 5:33 AM CDT 9:29 PM CDT
Nautical Twilight 4:52 AM CDT 10:10 PM CDT
Astronomical Twilight 4:06 AM CDT 10:56 PM CDT
Moon 1:38 PM CDT (6/16) 1:07 AM CDT (6/16)
Length of Visible Light 15h 56m
Length of Day
14h 52m
Waxing Crescent, 50% of the Moon is Illuminated
Jun 16
Waxing Crescent
Jun 16
First Quarter
Jun 23
Full
Jun 29
Last Quarter
Jul 8
New

Hourly Weather History & Observations

Time (CDT) Temp. Heat Index Dew Point Humidity Pressure Visibility Wind Dir Wind Speed Gust Speed Precip Events Conditions
12:53 AM 69.1 °F - 63.0 °F 81% 29.90 in 10.0 mi Calm Calm - N/A   Clear
1:53 AM 73.0 °F - 62.1 °F 68% 29.91 in 10.0 mi Calm Calm - N/A   Clear
2:53 AM 71.1 °F - 64.0 °F 78% 29.93 in 10.0 mi SSW 6.9 mph - N/A   Mostly Cloudy
3:53 AM 73.0 °F - 62.1 °F 68% 29.91 in 10.0 mi West 12.7 mph 25.3 mph N/A   Clear
4:53 AM 73.0 °F - 61.0 °F 66% 29.88 in 10.0 mi West 9.2 mph - N/A   Partly Cloudy
5:53 AM 71.1 °F - 62.1 °F 73% 29.89 in 10.0 mi North 8.1 mph - N/A   Clear
6:53 AM 70.0 °F - 62.1 °F 76% 29.92 in 10.0 mi NW 6.9 mph - N/A   Clear
7:53 AM 72.0 °F - 63.0 °F 73% 29.94 in 10.0 mi NW 6.9 mph - N/A   Clear
8:53 AM 75.0 °F - 64.0 °F 69% 29.95 in 10.0 mi NNW 4.6 mph - N/A   Clear
9:53 AM 77.0 °F - 66.9 °F 71% 29.95 in 10.0 mi NNE 12.7 mph - N/A   Clear
10:53 AM 81.0 °F 84.1 °F 69.1 °F 67% 29.95 in 10.0 mi ENE 9.2 mph - N/A   Scattered Clouds
11:53 AM 81.0 °F 83.8 °F 68.0 °F 65% 29.96 in 10.0 mi ENE 3.5 mph - N/A   Partly Cloudy
12:53 PM 84.0 °F 87.8 °F 69.1 °F 61% 29.94 in 10.0 mi Variable 6.9 mph - N/A   Clear
1:53 PM 86.0 °F 89.4 °F 68.0 °F 55% 29.94 in 10.0 mi NE 5.8 mph - N/A   Scattered Clouds
2:53 PM 87.1 °F 89.9 °F 66.9 °F 51% 29.93 in 10.0 mi Calm Calm - N/A   Partly Cloudy
3:53 PM 88.0 °F 89.6 °F 64.9 °F 46% 29.91 in 10.0 mi SSE 3.5 mph - N/A   Partly Cloudy
4:53 PM 89.1 °F 91.0 °F 64.9 °F 45% 29.89 in 10.0 mi Variable 5.8 mph - N/A   Scattered Clouds
5:53 PM 89.1 °F 90.0 °F 63.0 °F 42% 29.86 in 10.0 mi SE 5.8 mph - N/A   Partly Cloudy
6:53 PM 88.0 °F 89.6 °F 64.9 °F 46% 29.85 in 10.0 mi East 10.4 mph - N/A   Clear
7:53 PM 82.9 °F 85.8 °F 68.0 °F 60% 29.88 in 10.0 mi ENE 15.0 mph - N/A   Clear
8:53 PM 80.1 °F 82.7 °F 68.0 °F 67% 29.91 in 10.0 mi ENE 10.4 mph - N/A   Partly Cloudy
9:53 PM 79.0 °F - 66.9 °F 66% 29.93 in 10.0 mi ENE 11.5 mph - N/A   Partly Cloudy
10:53 PM 77.0 °F - 68.0 °F 74% 29.94 in 10.0 mi NE 10.4 mph - N/A   Mostly Cloudy
11:49 PM 77.0 °F - 68.0 °F 74% 29.98 in 10.0 mi NE 8.1 mph - N/A Thunderstorm Overcast
11:53 PM 77.0 °F - 68.0 °F 74% 29.94 in 10.0 mi NE 9.2 mph - N/A Thunderstorm Overcast